Date String (YYYY-MM-DD hh:mm:ss) UTC,Instrument flags,Ambient pressure (hPa),Sample flow (lpm),Bypass flow (lpm),Sample temperature (°C),Ambient temperature (°C),ASC tube jacket temperature (°C),LED temperature (°C),Box temperature (°C),Sample RH (%),Span deviation,Mass concentration (μg/m³),Mass concentration (μg/m³),Mass concentration (μg/m³)
DateTimeUTC,F1_M11,P_M11,Q1_M11,Q2_M11,T1_M11,T2_M11,T3_M11,T4_M11,T5_M11,U1_M11,ZSPAN_M11,X0_M11,X2_M11,X1_M11
2022-03-20 08:00:00,,0821.1,5.01,0.00,25.4,24.4,00.0,34.3,27.2,07.9,0000.0,0011.42,0004.79,0003.09
2022-03-20 08:01:00,,0821.1,5.00,0.00,25.4,24.4,00.0,34.3,27.1,07.9,0000.0,0011.33,0004.77,0003.06
2022-03-20 08:02:00,,0821.1,5.00,0.00,25.4,24.4,00.0,34.3,27.2,07.8,0000.0,0010.88,0004.76,0003.04
2022-03-20 08:03:00,,0821.1,5.00,0.00,25.4,24.4,00.0,34.3,27.2,07.7,0000.0,0011.51,0004.75,0003.00
2022-03-20 08:04:00,,0821.1,4.99,0.00,25.4,24.4,00.0,34.3,27.2,07.7,0000.0,0012.13,0004.72,0002.99
2022-03-20 08:05:00,,0821.1,5.00,0.00,25.4,24.4,00.0,34.3,27.1,07.6,0000.0,0011.98,0004.68,0002.97
2022-03-20 08:06:00,,0821.1,5.01,0.00,25.4,24.4,00.0,34.3,27.1,07.8,0000.0,0011.91,0004.68,0002.97
2022-03-20 08:07:00,,0821.2,4.99,0.00,25.4,24.3,00.0,34.3,27.1,07.8,0000.0,0012.15,0004.75,0002.96
2022-03-20 08:08:00,,0821.1,5.00,0.00,25.4,24.3,00.0,34.3,27.1,07.8,0000.0,0012.08,0004.75,0002.95
2022-03-20 08:09:00,,0821.1,5.00,0.00,25.3,24.3,00.0,34.3,27.1,07.8,0000.0,0012.18,0004.73,0002.93
2022-03-20 08:10:00,,0821.1,5.01,0.00,25.3,24.3,00.0,34.3,27.1,07.8,0000.0,0012.98,0004.72,0002.95
2022-03-20 08:11:00,,0821.1,4.98,0.00,25.3,24.4,00.0,34.3,27.1,07.8,0000.0,0012.98,0004.64,0002.95
2022-03-20 08:12:00,,0821.1,5.00,0.00,25.3,24.3,00.0,34.3,27.1,07.8,0000.0,0013.23,0004.63,0002.94
2022-03-20 08:13:00,,0821.1,5.00,0.00,25.3,24.4,00.0,34.3,27.1,07.8,0000.0,0013.39,0004.65,0002.95
2022-03-20 08:14:00,,0821.2,4.99,0.00,25.3,24.4,00.0,34.3,27.1,08.0,0000.0,0012.89,0004.59,0002.95
2022-03-20 08:15:00,,0821.1,5.01,0.00,25.3,24.3,00.0,34.3,27.1,08.1,0000.0,0012.99,0004.61,0002.96
2022-03-20 08:16:00,,0821.2,4.99,0.00,25.3,24.3,00.0,34.3,27.0,08.0,0000.0,0013.07,0004.68,0002.97
2022-03-20 08:17:00,,0821.1,5.01,0.00,25.3,24.3,00.0,34.3,27.0,08.1,0000.0,0013.10,0004.71,0002.97
2022-03-20 08:18:00,,0821.1,5.00,0.00,25.3,24.2,00.0,34.3,27.0,08.3,0000.0,0013.09,0004.73,0003.01
2022-03-20 08:19:00,,0821.1,5.00,0.00,25.3,24.2,00.0,34.3,27.0,08.4,0000.0,0013.14,0004.77,0003.02
2022-03-20 08:20:00,,0821.1,5.01,0.00,25.2,24.2,00.0,34.3,27.0,08.2,0000.0,0012.87,0004.80,0003.03
2022-03-20 08:21:00,,0821.1,5.01,0.00,25.2,24.2,00.0,34.3,27.0,08.3,0000.0,0012.18,0004.81,0003.03
2022-03-20 08:22:00,,0821.0,4.99,0.00,25.2,24.2,00.0,34.3,27.0,08.3,0000.0,0012.14,0004.90,0003.04
2022-03-20 08:23:00,,0821.0,5.01,0.00,25.2,24.2,00.0,34.3,26.9,08.4,0000.0,0011.91,0004.94,0003.07
2022-03-20 08:24:00,,0821.0,5.00,0.00,25.2,24.2,00.0,34.3,26.9,08.5,0000.0,0011.81,0004.93,0003.10
2022-03-20 08:25:00,,0821.0,5.00,0.00,25.2,24.1,00.0,34.2,26.9,08.5,0000.0,0011.71,0004.97,0003.11
2022-03-20 08:26:00,,0821.0,5.00,0.00,25.2,24.1,00.0,34.2,26.9,08.5,0000.0,0011.22,0005.02,0003.13
2022-03-20 08:27:00,,0821.0,5.02,0.00,25.2,24.1,00.0,34.2,26.9,08.4,0000.0,0010.85,0004.97,0003.14
2022-03-20 08:28:00,,0821.0,5.01,0.00,25.1,24.1,00.0,34.2,26.9,08.4,0000.0,0010.78,0004.92,0003.15
2022-03-20 08:29:00,,0821.0,5.00,0.00,25.1,24.1,00.0,34.2,26.8,08.2,0000.0,0010.74,0004.90,0003.14
2022-03-20 08:30:00,,0821.0,5.01,0.00,25.1,24.1,00.0,34.2,26.9,08.1,0000.0,0010.58,0004.84,0003.13
2022-03-20 08:31:00,,0820.9,5.00,0.00,25.1,24.1,00.0,34.2,26.9,08.0,0000.0,0011.40,0004.76,0003.11
2022-03-20 08:32:00,,0820.9,4.99,0.00,25.1,24.1,00.0,34.2,26.9,07.9,0000.0,0011.72,0004.75,0003.10
2022-03-20 08:33:00,,0820.8,5.00,0.00,25.1,24.1,00.0,34.2,26.8,07.9,0000.0,0012.08,0004.73,0003.08
2022-03-20 08:34:00,,0820.8,4.99,0.00,25.1,24.1,00.0,34.2,26.8,07.9,0000.0,0012.22,0004.72,0003.07
2022-03-20 08:35:00,,0820.8,4.99,0.00,25.1,24.1,00.0,34.2,26.9,07.9,0000.0,0012.47,0004.73,0003.06
2022-03-20 08:36:00,,0820.8,5.01,0.00,25.1,24.1,00.0,34.1,26.9,07.9,0000.0,0012.36,0004.71,0003.06
2022-03-20 08:37:00,,0820.8,5.00,0.00,25.1,24.1,00.0,34.1,26.9,08.0,0000.0,0012.46,0004.69,0003.04
2022-03-20 08:38:00,,0820.8,5.00,0.00,25.1,24.1,00.0,34.1,26.9,08.0,0000.0,0013.08,0004.70,0003.01
2022-03-20 08:39:00,,0820.8,5.00,0.00,25.1,24.1,00.0,34.1,26.9,08.0,0000.0,0013.24,0004.75,0003.01
2022-03-20 08:40:00,,0820.8,4.99,0.00,25.1,24.2,00.0,34.1,26.9,07.9,0000.0,0013.51,0004.78,0002.98
2022-03-20 08:41:00,,0820.8,5.02,0.00,25.1,24.2,00.0,34.1,26.9,07.9,0000.0,0013.94,0004.82,0002.99
2022-03-20 08:42:00,,0820.8,4.99,0.00,25.1,24.2,00.0,34.1,26.9,08.3,0000.0,0013.70,0004.89,0003.01
2022-03-20 08:43:00,,0820.8,5.00,0.00,25.1,24.2,00.0,34.1,26.9,08.5,0000.0,0012.99,0004.88,0003.04
2022-03-20 08:44:00,,0820.8,5.01,0.00,25.1,24.2,00.0,34.1,26.9,08.6,0000.0,0012.78,0004.87,0003.06
2022-03-20 08:45:00,,0820.8,5.01,0.00,25.1,24.2,00.0,34.1,26.9,08.5,0000.0,0012.45,0004.86,0003.08
2022-03-20 08:46:00,,0820.8,4.99,0.00,25.1,24.2,00.0,34.1,26.9,08.6,0000.0,0012.20,0004.86,0003.12
2022-03-20 08:47:00,,0820.8,5.02,0.00,25.1,24.2,00.0,34.1,26.9,08.7,0000.0,0012.17,0004.85,0003.13
2022-03-20 08:48:00,,0820.9,4.99,0.00,25.2,24.2,00.0,34.1,26.9,08.9,0000.0,0012.15,0004.89,0003.16
2022-03-20 08:49:00,,0821.0,5.00,0.00,25.1,24.2,00.0,34.1,26.9,08.9,0000.0,0011.63,0004.92,0003.20
2022-03-20 08:50:00,,0821.0,5.01,0.00,25.1,24.1,00.0,34.1,26.8,08.7,0000.0,0011.92,0004.90,0003.21
2022-03-20 08:51:00,,0821.0,4.98,0.00,25.1,24.1,00.0,34.1,26.8,08.3,0000.0,0011.63,0004.85,0003.19
2022-03-20 08:52:00,,0821.0,5.01,0.00,25.1,24.1,00.0,34.1,26.8,08.1,0000.0,0011.33,0004.85,0003.18
2022-03-20 08:53:00,,0820.8,5.00,0.00,25.1,24.0,00.0,34.1,26.8,08.0,0000.0,0011.20,0004.78,0003.15
2022-03-20 08:54:00,,0820.8,4.99,0.00,25.0,24.0,00.0,34.1,26.8,07.9,0000.0,0011.05,0004.75,0003.12
2022-03-20 08:55:00,,0820.7,5.01,0.00,25.0,24.0,00.0,34.1,26.7,07.7,0000.0,0010.75,0004.77,0003.10
2022-03-20 08:56:00,,0820.7,4.99,0.00,25.0,24.0,00.0,34.1,26.7,07.7,0000.0,0010.69,0004.73,0003.07
2022-03-20 08:57:00,,0820.6,5.00,0.00,25.0,24.0,00.0,34.1,26.7,07.7,0000.0,0010.62,0004.67,0003.00
2022-03-20 08:58:00,,0820.7,5.01,0.00,25.0,24.0,00.0,34.1,26.7,07.8,0000.0,0011.31,0004.65,0002.96
2022-03-20 08:59:00,,0820.6,5.01,0.00,25.0,24.0,00.0,34.1,26.8,07.8,0000.0,0011.31,0004.60,0002.91
